Year,Month,Day,Hour,Minute,Value (Times are PST for windspeed in km/hr)
2012,08,24,00,00,8.10
2012,08,24,00,01,8.10
2012,08,24,00,02,8.10
2012,08,24,00,03,7.10
2012,08,24,00,04,7.50
2012,08,24,00,05,5.70
2012,08,24,00,06,5.30
2012,08,24,00,07,4.10
2012,08,24,00,08,5.20
2012,08,24,00,09,3.50
2012,08,24,00,10,4.30
2012,08,24,00,11,4.10
2012,08,24,00,12,6.70
2012,08,24,00,13,7.80
2012,08,24,00,14,5.80
2012,08,24,00,15,7.70
2012,08,24,00,16,6.60
2012,08,24,00,17,6.50
2012,08,24,00,18,4.90
2012,08,24,00,19,5.80
2012,08,24,00,20,4.40
2012,08,24,00,21,6.00
2012,08,24,00,22,6.60
2012,08,24,00,23,6.30
2012,08,24,00,24,8.10
2012,08,24,00,25,5.10
2012,08,24,00,26,6.50
2012,08,24,00,27,6.90
2012,08,24,00,28,10.20
2012,08,24,00,29,11.40
2012,08,24,00,30,12.90
2012,08,24,00,31,12.00
2012,08,24,00,32,7.40
2012,08,24,00,33,9.00
2012,08,24,00,34,9.30
2012,08,24,00,35,10.50
2012,08,24,00,36,12.10
2012,08,24,00,37,9.70
2012,08,24,00,38,11.60
2012,08,24,00,39,9.70
2012,08,24,00,40,10.30
2012,08,24,00,41,8.80
2012,08,24,00,42,11.80
2012,08,24,00,43,10.00
2012,08,24,00,44,8.00
2012,08,24,00,45,7.90
2012,08,24,00,46,9.70
2012,08,24,00,47,9.40
2012,08,24,00,48,6.90
2012,08,24,00,49,9.20
2012,08,24,00,50,8.10
2012,08,24,00,51,3.40
2012,08,24,00,52,6.00
2012,08,24,00,53,7.40
2012,08,24,00,54,5.20
2012,08,24,00,55,6.40
2012,08,24,00,56,6.70
2012,08,24,00,57,6.20
2012,08,24,00,58,1.10
2012,08,24,00,59,6.50
2012,08,24,01,00,4.20
2012,08,24,01,01,9.40
2012,08,24,01,02,9.70
2012,08,24,01,03,5.70
2012,08,24,01,04,4.40
2012,08,24,01,05,4.50
2012,08,24,01,06,7.20
2012,08,24,01,07,8.30
2012,08,24,01,08,11.40
2012,08,24,01,09,9.50
2012,08,24,01,10,11.50
2012,08,24,01,11,10.80
2012,08,24,01,12,10.10
2012,08,24,01,13,7.40
2012,08,24,01,14,6.80
2012,08,24,01,15,8.30
2012,08,24,01,16,8.90
2012,08,24,01,17,8.60
2012,08,24,01,18,6.10
2012,08,24,01,19,5.40
2012,08,24,01,20,9.70
2012,08,24,01,21,7.60
2012,08,24,01,22,5.20
2012,08,24,01,23,7.80
2012,08,24,01,24,5.60
2012,08,24,01,25,6.80
2012,08,24,01,26,9.70
2012,08,24,01,27,6.80
2012,08,24,01,28,7.60
2012,08,24,01,29,12.90
2012,08,24,01,30,9.90
2012,08,24,01,31,11.60
2012,08,24,01,32,10.10
2012,08,24,01,33,7.30
2012,08,24,01,34,9.80
2012,08,24,01,35,8.20
2012,08,24,01,36,7.60
2012,08,24,01,37,7.60
2012,08,24,01,38,8.10
2012,08,24,01,39,10.00
2012,08,24,01,40,10.20
2012,08,24,01,41,7.60
2012,08,24,01,42,8.70
2012,08,24,01,43,7.50
2012,08,24,01,44,6.40
2012,08,24,01,45,6.40
2012,08,24,01,46,8.00
2012,08,24,01,47,8.40
2012,08,24,01,48,10.80
2012,08,24,01,49,8.40
2012,08,24,01,50,6.00
2012,08,24,01,51,2.60
2012,08,24,01,52,2.50
2012,08,24,01,53,4.50
2012,08,24,01,54,5.60
2012,08,24,01,55,4.60
2012,08,24,01,56,2.30
2012,08,24,01,57,6.20
2012,08,24,01,58,4.80
2012,08,24,01,59,2.70
2012,08,24,02,00,4.70
2012,08,24,02,01,3.10
2012,08,24,02,02,7.20
2012,08,24,02,03,9.30
2012,08,24,02,04,8.80
2012,08,24,02,05,5.90
2012,08,24,02,06,6.40
2012,08,24,02,07,4.90
2012,08,24,02,08,6.90
2012,08,24,02,09,7.30
2012,08,24,02,10,6.80
2012,08,24,02,11,5.10
2012,08,24,02,12,3.00
2012,08,24,02,13,6.60
2012,08,24,02,14,6.90
2012,08,24,02,15,4.60
2012,08,24,02,16,4.00
2012,08,24,02,17,4.70
2012,08,24,02,18,3.90
2012,08,24,02,19,4.30
2012,08,24,02,20,5.10
2012,08,24,02,21,4.00
2012,08,24,02,22,5.50
2012,08,24,02,23,1.80
2012,08,24,02,24,3.60
2012,08,24,02,25,5.20
2012,08,24,02,26,7.00
2012,08,24,02,27,5.80
2012,08,24,02,28,4.30
2012,08,24,02,29,5.60
2012,08,24,02,30,2.50
2012,08,24,02,31,4.00
2012,08,24,02,32,2.20
2012,08,24,02,33,6.30
2012,08,24,02,34,7.60
2012,08,24,02,35,4.00
2012,08,24,02,36,2.50
2012,08,24,02,37,5.90
2012,08,24,02,38,5.30
2012,08,24,02,39,4.50
2012,08,24,02,40,3.90
2012,08,24,02,41,6.00
2012,08,24,02,42,4.10
2012,08,24,02,43,3.00
2012,08,24,02,44,4.30
2012,08,24,02,45,4.20
2012,08,24,02,46,5.00
2012,08,24,02,47,5.30
2012,08,24,02,48,5.70
2012,08,24,02,49,6.60
2012,08,24,02,50,2.40
2012,08,24,02,51,4.40
2012,08,24,02,52,5.10
2012,08,24,02,53,3.90
2012,08,24,02,54,4.10
2012,08,24,02,55,2.90
2012,08,24,02,56,2.00
2012,08,24,02,57,1.90
2012,08,24,02,58,1.60
2012,08,24,02,59,1.50
2012,08,24,03,00,3.60
2012,08,24,03,01,3.30
2012,08,24,03,02,1.90
2012,08,24,03,03,1.10
2012,08,24,03,04,0.80
2012,08,24,03,05,1.00
2012,08,24,03,06,1.80
2012,08,24,03,07,6.20
2012,08,24,03,08,5.20
2012,08,24,03,09,3.00
2012,08,24,03,10,4.80
2012,08,24,03,11,3.70
2012,08,24,03,12,4.60
2012,08,24,03,13,6.60
2012,08,24,03,14,3.30
2012,08,24,03,15,3.90
2012,08,24,03,16,2.70
2012,08,24,03,17,2.10
2012,08,24,03,18,1.80
2012,08,24,03,19,5.90
2012,08,24,03,20,4.50
2012,08,24,03,21,0.50
2012,08,24,03,22,1.80
2012,08,24,03,23,2.50
2012,08,24,03,24,0.40
2012,08,24,03,25,0.10
2012,08,24,03,26,0.10
2012,08,24,03,27,0.20
2012,08,24,03,28,3.10
2012,08,24,03,29,3.80
2012,08,24,03,30,3.60
2012,08,24,03,31,6.20
2012,08,24,03,32,6.40
2012,08,24,03,33,7.70
2012,08,24,03,34,7.70
2012,08,24,03,35,5.60
2012,08,24,03,36,7.70
2012,08,24,03,37,7.00
2012,08,24,03,38,5.30
2012,08,24,03,39,3.90
2012,08,24,03,40,2.70
2012,08,24,03,41,7.90
2012,08,24,03,42,5.10
2012,08,24,03,43,4.60
2012,08,24,03,44,4.20
2012,08,24,03,45,4.60
2012,08,24,03,46,3.80
2012,08,24,03,47,5.60
2012,08,24,03,48,4.70
2012,08,24,03,49,4.70
2012,08,24,03,50,4.70
2012,08,24,03,51,4.90
2012,08,24,03,52,4.90
2012,08,24,03,53,5.40
2012,08,24,03,54,6.00
2012,08,24,03,55,6.80
2012,08,24,03,56,3.10
2012,08,24,03,57,1.90
2012,08,24,03,58,6.00
2012,08,24,03,59,4.40
2012,08,24,04,00,2.50
2012,08,24,04,01,3.10
2012,08,24,04,02,4.00
2012,08,24,04,03,3.50
2012,08,24,04,04,1.50
2012,08,24,04,05,2.90
2012,08,24,04,06,0.00
2012,08,24,04,07,0.00
2012,08,24,04,08,0.10
2012,08,24,04,09,0.00
2012,08,24,04,10,0.00
2012,08,24,04,11,0.10
2012,08,24,04,12,0.00
2012,08,24,04,13,0.00
2012,08,24,04,14,0.00
2012,08,24,04,15,1.10
2012,08,24,04,16,0.10
2012,08,24,04,17,0.00
2012,08,24,04,18,1.80
2012,08,24,04,19,1.10
2012,08,24,04,20,1.20
2012,08,24,04,21,1.10
2012,08,24,04,22,1.00
2012,08,24,04,23,0.10
2012,08,24,04,24,2.70
2012,08,24,04,25,4.40
2012,08,24,04,26,0.90
2012,08,24,04,27,2.90
2012,08,24,04,28,1.40
2012,08,24,04,29,0.30
2012,08,24,04,30,1.50
2012,08,24,04,31,1.10
2012,08,24,04,32,4.10
2012,08,24,04,33,0.20
2012,08,24,04,34,1.80
2012,08,24,04,35,1.80
2012,08,24,04,36,2.70
2012,08,24,04,37,1.40
2012,08,24,04,38,1.10
2012,08,24,04,39,0.20
2012,08,24,04,40,0.00
2012,08,24,04,41,2.60
2012,08,24,04,42,6.20
2012,08,24,04,43,3.00
2012,08,24,04,44,3.10
2012,08,24,04,45,4.20
2012,08,24,04,46,3.50
2012,08,24,04,47,4.90
2012,08,24,04,48,5.50
2012,08,24,04,49,3.30
2012,08,24,04,50,2.60
2012,08,24,04,51,5.90
2012,08,24,04,52,4.70
2012,08,24,04,53,4.30
2012,08,24,04,54,2.40
2012,08,24,04,55,3.80
2012,08,24,04,56,2.60
2012,08,24,04,57,6.80
2012,08,24,04,58,7.60
2012,08,24,04,59,6.50
2012,08,24,05,00,3.90
2012,08,24,05,01,5.10
2012,08,24,05,02,8.30
2012,08,24,05,03,6.00
2012,08,24,05,04,1.30
2012,08,24,05,05,2.40
2012,08,24,05,06,3.00
2012,08,24,05,07,1.90
2012,08,24,05,08,2.50
2012,08,24,05,09,2.70
2012,08,24,05,10,1.90
2012,08,24,05,11,0.30
2012,08,24,05,12,4.20
2012,08,24,05,13,5.30
2012,08,24,05,14,5.00
2012,08,24,05,15,1.10
2012,08,24,05,16,0.90
2012,08,24,05,17,2.30
2012,08,24,05,18,5.30
2012,08,24,05,19,3.20
2012,08,24,05,20,6.50
2012,08,24,05,21,3.60
2012,08,24,05,22,5.50
2012,08,24,05,23,1.70
2012,08,24,05,24,4.30
2012,08,24,05,25,3.50
2012,08,24,05,26,3.10
2012,08,24,05,27,2.30
2012,08,24,05,28,3.30
2012,08,24,05,29,3.80
2012,08,24,05,30,2.70
2012,08,24,05,31,7.50
2012,08,24,05,32,4.30
2012,08,24,05,33,2.90
2012,08,24,05,34,5.00
2012,08,24,05,35,6.90
2012,08,24,05,36,4.40
2012,08,24,05,37,9.20
2012,08,24,05,38,5.20
2012,08,24,05,39,6.00
2012,08,24,05,40,4.50
2012,08,24,05,41,5.20
2012,08,24,05,42,3.80
2012,08,24,05,43,7.30
2012,08,24,05,44,5.50
2012,08,24,05,45,4.00
2012,08,24,05,46,4.80
2012,08,24,05,47,6.20
2012,08,24,05,48,7.50
2012,08,24,05,49,4.00
2012,08,24,05,50,4.70
2012,08,24,05,51,1.10
2012,08,24,05,52,5.30
2012,08,24,05,53,2.20
2012,08,24,05,54,0.80
2012,08,24,05,55,1.40
2012,08,24,05,56,3.90
2012,08,24,05,57,0.00
2012,08,24,05,58,0.00
2012,08,24,05,59,2.30
2012,08,24,06,00,3.50
2012,08,24,06,01,1.40
2012,08,24,06,02,3.00
2012,08,24,06,03,1.40
2012,08,24,06,04,0.40
2012,08,24,06,05,0.20
2012,08,24,06,06,0.40
2012,08,24,06,07,0.80
2012,08,24,06,08,0.60
2012,08,24,06,09,0.20
2012,08,24,06,10,2.70
2012,08,24,06,11,1.70
2012,08,24,06,12,0.00
2012,08,24,06,13,0.20
2012,08,24,06,14,0.00
2012,08,24,06,15,0.00
2012,08,24,06,16,0.00
2012,08,24,06,17,0.00
2012,08,24,06,18,0.20
2012,08,24,06,19,0.00
2012,08,24,06,20,0.10
2012,08,24,06,21,0.00
2012,08,24,06,22,0.00
2012,08,24,06,23,0.20
2012,08,24,06,24,0.10
2012,08,24,06,25,0.60
2012,08,24,06,26,1.00
2012,08,24,06,27,0.00
2012,08,24,06,28,0.10
2012,08,24,06,29,0.00
2012,08,24,06,30,0.00
2012,08,24,06,31,0.10
2012,08,24,06,32,1.00
2012,08,24,06,33,2.00
2012,08,24,06,34,0.00
2012,08,24,06,35,0.20
2012,08,24,06,36,0.20
2012,08,24,06,37,1.00
2012,08,24,06,38,1.80
2012,08,24,06,39,0.20
2012,08,24,06,40,0.20
2012,08,24,06,41,0.00
2012,08,24,06,42,0.80
2012,08,24,06,43,0.00
2012,08,24,06,44,0.70
2012,08,24,06,45,0.90
2012,08,24,06,46,0.00
2012,08,24,06,47,0.00
2012,08,24,06,48,0.00
2012,08,24,06,49,0.20
2012,08,24,06,50,0.00
2012,08,24,06,51,0.10
2012,08,24,06,52,1.00
2012,08,24,06,53,0.70
2012,08,24,06,54,0.00
2012,08,24,06,55,0.00
2012,08,24,06,56,0.00
2012,08,24,06,57,0.00
2012,08,24,06,58,0.00
2012,08,24,06,59,0.00
2012,08,24,07,00,0.00
2012,08,24,07,01,0.00
2012,08,24,07,02,0.00
2012,08,24,07,03,0.00
2012,08,24,07,04,0.00
2012,08,24,07,05,0.00
2012,08,24,07,06,0.00
2012,08,24,07,07,0.00
2012,08,24,07,08,0.00
2012,08,24,07,09,0.00
2012,08,24,07,10,0.00
2012,08,24,07,11,0.00
2012,08,24,07,12,0.00
2012,08,24,07,13,0.00
2012,08,24,07,14,0.00
2012,08,24,07,15,0.00
2012,08,24,07,16,0.00
2012,08,24,07,17,0.00
2012,08,24,07,18,0.00
2012,08,24,07,19,0.00
2012,08,24,07,20,0.00
2012,08,24,07,21,0.00
2012,08,24,07,22,0.00
2012,08,24,07,23,0.00
2012,08,24,07,24,0.00
2012,08,24,07,25,0.00
2012,08,24,07,26,0.00
2012,08,24,07,27,0.00
2012,08,24,07,28,0.00
2012,08,24,07,29,0.00
2012,08,24,07,30,0.00
2012,08,24,07,31,0.00
2012,08,24,07,32,0.00
2012,08,24,07,33,0.10
2012,08,24,07,34,0.00
2012,08,24,07,35,0.00
2012,08,24,07,36,0.00
2012,08,24,07,37,0.00
2012,08,24,07,38,0.00
2012,08,24,07,39,0.00
2012,08,24,07,40,0.00
2012,08,24,07,41,0.00
2012,08,24,07,42,0.00
2012,08,24,07,43,0.00
2012,08,24,07,44,0.00
2012,08,24,07,45,0.00
2012,08,24,07,46,0.00
2012,08,24,07,47,0.00
2012,08,24,07,48,0.00
2012,08,24,07,49,0.00
2012,08,24,07,50,0.00
2012,08,24,07,51,0.00
2012,08,24,07,52,0.00
2012,08,24,07,53,0.00
2012,08,24,07,54,0.00
2012,08,24,07,55,0.00
2012,08,24,07,56,0.00
2012,08,24,07,57,0.00
2012,08,24,07,58,0.00
2012,08,24,07,59,0.00
2012,08,24,08,00,0.00
2012,08,24,08,01,0.00
2012,08,24,08,02,0.00
2012,08,24,08,03,0.00
2012,08,24,08,04,0.00
2012,08,24,08,05,2.00
2012,08,24,08,06,0.20
2012,08,24,08,07,1.30
2012,08,24,08,08,1.30
2012,08,24,08,09,0.30
2012,08,24,08,10,1.10
2012,08,24,08,11,1.10
2012,08,24,08,12,2.70
2012,08,24,08,13,0.10
2012,08,24,08,14,1.60
2012,08,24,08,15,0.30
2012,08,24,08,16,0.50
2012,08,24,08,17,1.30
2012,08,24,08,18,0.90
2012,08,24,08,19,0.20
2012,08,24,08,20,0.00
2012,08,24,08,21,0.00
2012,08,24,08,22,0.10
2012,08,24,08,23,0.00
2012,08,24,08,24,0.00
2012,08,24,08,25,0.10
2012,08,24,08,26,0.00
2012,08,24,08,27,0.00
2012,08,24,08,28,0.10
2012,08,24,08,29,0.00
2012,08,24,08,30,0.10
2012,08,24,08,31,0.00
2012,08,24,08,32,0.00
2012,08,24,08,33,0.00
2012,08,24,08,34,0.00
2012,08,24,08,35,0.00
2012,08,24,08,36,0.00
2012,08,24,08,37,0.10
2012,08,24,08,38,0.00
2012,08,24,08,39,0.10
2012,08,24,08,40,1.40
2012,08,24,08,41,1.20
2012,08,24,08,42,1.30
2012,08,24,08,43,3.00
2012,08,24,08,44,1.00
2012,08,24,08,45,0.20
2012,08,24,08,46,0.20
2012,08,24,08,47,1.60
2012,08,24,08,48,1.10
2012,08,24,08,49,0.20
2012,08,24,08,50,0.30
2012,08,24,08,51,0.00
2012,08,24,08,52,0.00
2012,08,24,08,53,0.10
2012,08,24,08,54,0.00
2012,08,24,08,55,0.10
2012,08,24,08,56,0.10
2012,08,24,08,57,0.00
2012,08,24,08,58,0.00
2012,08,24,08,59,0.00
2012,08,24,09,00,0.20
2012,08,24,09,01,0.00
2012,08,24,09,02,0.00
2012,08,24,09,03,0.20
2012,08,24,09,04,0.30
2012,08,24,09,05,0.00
2012,08,24,09,06,0.60
2012,08,24,09,07,1.30
2012,08,24,09,08,1.60
2012,08,24,09,09,0.60
2012,08,24,09,10,0.30
2012,08,24,09,11,0.90
2012,08,24,09,12,0.70
2012,08,24,09,13,1.80
2012,08,24,09,14,5.00
2012,08,24,09,15,0.00
2012,08,24,09,16,0.10
2012,08,24,09,17,0.30
2012,08,24,09,18,1.30
2012,08,24,09,19,0.10
2012,08,24,09,20,0.00
2012,08,24,09,21,0.00
2012,08,24,09,22,2.70
2012,08,24,09,23,3.00
2012,08,24,09,24,0.20
2012,08,24,09,25,0.90
2012,08,24,09,26,2.20
2012,08,24,09,27,0.30
2012,08,24,09,28,0.60
2012,08,24,09,29,0.30
2012,08,24,09,30,0.40
2012,08,24,09,31,0.20
2012,08,24,09,32,0.90
2012,08,24,09,33,1.10
2012,08,24,09,34,1.20
2012,08,24,09,35,3.10
2012,08,24,09,36,0.30
2012,08,24,09,37,0.60
2012,08,24,09,38,0.80
2012,08,24,09,39,2.60
2012,08,24,09,40,3.90
2012,08,24,09,41,4.90
2012,08,24,09,42,6.60
2012,08,24,09,43,4.70
2012,08,24,09,44,1.10
2012,08,24,09,45,1.80
2012,08,24,09,46,0.00
2012,08,24,09,47,0.50
2012,08,24,09,48,0.30
2012,08,24,09,49,0.90
2012,08,24,09,50,1.60
2012,08,24,09,51,5.00
2012,08,24,09,52,6.30
2012,08,24,09,53,5.50
2012,08,24,09,54,8.40
2012,08,24,09,55,5.20
2012,08,24,09,56,3.20
2012,08,24,09,57,4.50
2012,08,24,09,58,3.40
2012,08,24,09,59,5.20
2012,08,24,10,00,5.70
2012,08,24,10,01,6.80
2012,08,24,10,02,7.10
2012,08,24,10,03,8.70
2012,08,24,10,04,4.80
2012,08,24,10,05,8.30
2012,08,24,10,06,8.90
2012,08,24,10,07,8.10
2012,08,24,10,08,8.70
2012,08,24,10,09,7.00
2012,08,24,10,10,4.70
2012,08,24,10,11,5.80
2012,08,24,10,12,4.40
2012,08,24,10,13,3.40
2012,08,24,10,14,5.80
2012,08,24,10,15,5.40
2012,08,24,10,16,5.10
2012,08,24,10,17,4.30
2012,08,24,10,18,6.10
2012,08,24,10,19,6.80
2012,08,24,10,20,7.00
2012,08,24,10,21,4.80
2012,08,24,10,22,3.20
2012,08,24,10,23,6.10
2012,08,24,10,24,10.40
2012,08,24,10,25,8.50
2012,08,24,10,26,6.10
2012,08,24,10,27,4.90
2012,08,24,10,28,5.70
2012,08,24,10,29,8.30
2012,08,24,10,30,5.10
2012,08,24,10,31,6.30
2012,08,24,10,32,5.30
2012,08,24,10,33,5.00
2012,08,24,10,34,7.70
2012,08,24,10,35,4.80
2012,08,24,10,36,3.50
2012,08,24,10,37,6.80
2012,08,24,10,38,7.60
2012,08,24,10,39,6.80
2012,08,24,10,40,5.20
2012,08,24,10,41,7.40
2012,08,24,10,42,4.80
2012,08,24,10,43,3.30
2012,08,24,10,44,4.80
2012,08,24,10,45,8.50
2012,08,24,10,46,8.80
2012,08,24,10,47,9.50
2012,08,24,10,48,8.70
2012,08,24,10,49,6.80
2012,08,24,10,50,4.90
2012,08,24,10,51,5.20
2012,08,24,10,52,5.70
2012,08,24,10,53,4.00
2012,08,24,10,54,9.20
2012,08,24,10,55,7.20
2012,08,24,10,56,7.30
2012,08,24,10,57,10.10
2012,08,24,10,58,9.70
2012,08,24,10,59,6.80
2012,08,24,11,00,8.50
2012,08,24,11,01,4.10
2012,08,24,11,02,7.90
2012,08,24,11,03,7.00
2012,08,24,11,04,7.60
2012,08,24,11,05,7.40
2012,08,24,11,06,5.10
2012,08,24,11,07,9.10
2012,08,24,11,08,6.60
2012,08,24,11,09,9.50
2012,08,24,11,10,8.00
2012,08,24,11,11,7.10
2012,08,24,11,12,7.10
2012,08,24,11,13,3.80
2012,08,24,11,14,0.60
2012,08,24,11,15,7.60
2012,08,24,11,16,2.10
2012,08,24,11,17,4.60
2012,08,24,11,18,9.30
2012,08,24,11,19,4.10
2012,08,24,11,20,3.70
2012,08,24,11,21,5.10
2012,08,24,11,22,8.00
2012,08,24,11,23,3.70
2012,08,24,11,24,4.80
2012,08,24,11,25,8.00
2012,08,24,11,26,9.70
2012,08,24,11,27,6.50
2012,08,24,11,28,4.50
2012,08,24,11,29,2.40
2012,08,24,11,30,6.30
2012,08,24,11,31,5.50
2012,08,24,11,32,6.80
2012,08,24,11,33,5.50
2012,08,24,11,34,8.90
2012,08,24,11,35,6.90
2012,08,24,11,36,1.40
2012,08,24,11,37,7.20
2012,08,24,11,38,5.20
2012,08,24,11,39,2.30
2012,08,24,11,40,2.60
2012,08,24,11,41,5.50
2012,08,24,11,42,1.60
2012,08,24,11,43,10.30
2012,08,24,11,44,7.10
2012,08,24,11,45,6.00
2012,08,24,11,46,6.90
2012,08,24,11,47,6.20
2012,08,24,11,48,1.70
2012,08,24,11,49,0.20
2012,08,24,11,50,8.80
2012,08,24,11,51,8.00
2012,08,24,11,52,7.00
2012,08,24,11,53,9.70
2012,08,24,11,54,5.80
2012,08,24,11,55,6.40
2012,08,24,11,56,3.60
2012,08,24,11,57,4.70
2012,08,24,11,58,6.30
2012,08,24,11,59,6.80
2012,08,24,12,00,8.00
2012,08,24,12,01,6.40
2012,08,24,12,02,2.70
2012,08,24,12,03,4.50
2012,08,24,12,04,5.10
2012,08,24,12,05,7.50
2012,08,24,12,06,5.20
2012,08,24,12,07,5.20
2012,08,24,12,08,4.20
2012,08,24,12,09,8.50
2012,08,24,12,10,8.70
2012,08,24,12,11,4.40
2012,08,24,12,12,8.50
2012,08,24,12,13,15.00
2012,08,24,12,14,8.40
2012,08,24,12,15,7.10
2012,08,24,12,16,2.70
2012,08,24,12,17,8.10
2012,08,24,12,18,6.40
2012,08,24,12,19,3.20
2012,08,24,12,20,7.30
2012,08,24,12,21,6.10
2012,08,24,12,22,3.10
2012,08,24,12,23,4.90
2012,08,24,12,24,8.00
2012,08,24,12,25,4.90
2012,08,24,12,26,5.80
2012,08,24,12,27,6.50
2012,08,24,12,28,7.70
2012,08,24,12,29,2.50
2012,08,24,12,30,1.40
2012,08,24,12,31,6.00
2012,08,24,12,32,6.40
2012,08,24,12,33,2.90
2012,08,24,12,34,7.60
2012,08,24,12,35,6.80
2012,08,24,12,36,3.00
2012,08,24,12,37,3.50
2012,08,24,12,38,6.40
2012,08,24,12,39,5.20
2012,08,24,12,40,5.30
2012,08,24,12,41,6.70
2012,08,24,12,42,8.40
2012,08,24,12,43,7.20
2012,08,24,12,44,5.80
2012,08,24,12,45,8.20
2012,08,24,12,46,2.10
2012,08,24,12,47,4.40
2012,08,24,12,48,1.00
2012,08,24,12,49,0.60
2012,08,24,12,50,5.70
2012,08,24,12,51,9.60
2012,08,24,12,52,10.60
2012,08,24,12,53,7.70
2012,08,24,12,54,9.80
2012,08,24,12,55,10.00
2012,08,24,12,56,10.80
2012,08,24,12,57,7.10
2012,08,24,12,58,2.80
2012,08,24,12,59,4.30
2012,08,24,13,00,5.60
2012,08,24,13,01,7.20
2012,08,24,13,02,6.40
2012,08,24,13,03,8.10
2012,08,24,13,04,1.90
2012,08,24,13,05,3.90
2012,08,24,13,06,7.60
2012,08,24,13,07,2.70
2012,08,24,13,08,7.60
2012,08,24,13,09,2.70
2012,08,24,13,10,10.40
2012,08,24,13,11,9.60
2012,08,24,13,12,8.40
2012,08,24,13,13,7.90
2012,08,24,13,14,5.90
2012,08,24,13,15,0.90
2012,08,24,13,16,11.20
2012,08,24,13,17,10.10
2012,08,24,13,18,10.30
2012,08,24,13,19,6.90
2012,08,24,13,20,4.80
2012,08,24,13,21,9.20
2012,08,24,13,22,5.90
2012,08,24,13,23,5.20
2012,08,24,13,24,8.90
2012,08,24,13,25,7.40
2012,08,24,13,26,10.20
2012,08,24,13,27,9.70
2012,08,24,13,28,6.10
2012,08,24,13,29,8.10
2012,08,24,13,30,3.10
2012,08,24,13,31,1.60
2012,08,24,13,32,6.70
2012,08,24,13,33,6.60
2012,08,24,13,34,9.10
2012,08,24,13,35,5.20
2012,08,24,13,36,3.90
2012,08,24,13,37,9.30
2012,08,24,13,38,8.70
2012,08,24,13,39,7.30
2012,08,24,13,40,7.80
2012,08,24,13,41,10.70
2012,08,24,13,42,9.80
2012,08,24,13,43,12.10
2012,08,24,13,44,9.80
2012,08,24,13,45,6.90
2012,08,24,13,46,6.40
2012,08,24,13,47,5.90
2012,08,24,13,48,8.00
2012,08,24,13,49,11.80
2012,08,24,13,50,8.30
2012,08,24,13,51,6.00
2012,08,24,13,52,2.30
2012,08,24,13,53,1.80
2012,08,24,13,54,9.60
2012,08,24,13,55,6.80
2012,08,24,13,56,4.60
2012,08,24,13,57,7.20
2012,08,24,13,58,7.00
2012,08,24,13,59,5.30
2012,08,24,14,00,3.70
2012,08,24,14,01,9.30
2012,08,24,14,02,6.30
2012,08,24,14,03,4.90
2012,08,24,14,04,2.60
2012,08,24,14,05,5.80
2012,08,24,14,06,5.60
2012,08,24,14,07,4.30
2012,08,24,14,08,8.60
2012,08,24,14,09,4.10
2012,08,24,14,10,4.80
2012,08,24,14,11,5.20
2012,08,24,14,12,7.40
2012,08,24,14,13,6.70
2012,08,24,14,14,11.10
2012,08,24,14,15,7.90
2012,08,24,14,16,8.60
2012,08,24,14,17,6.10
2012,08,24,14,18,6.30
2012,08,24,14,19,5.40
2012,08,24,14,20,7.20
2012,08,24,14,21,11.00
2012,08,24,14,22,8.30
2012,08,24,14,23,5.60
2012,08,24,14,24,5.40
2012,08,24,14,25,11.90
2012,08,24,14,26,4.40
2012,08,24,14,27,2.90
2012,08,24,14,28,3.80
2012,08,24,14,29,2.40
2012,08,24,14,30,9.10
2012,08,24,14,31,12.20
2012,08,24,14,32,7.40
2012,08,24,14,33,3.10
2012,08,24,14,34,8.00
2012,08,24,14,35,8.10
2012,08,24,14,36,3.40
2012,08,24,14,37,8.90
2012,08,24,14,38,9.10
2012,08,24,14,39,8.70
2012,08,24,14,40,3.50
2012,08,24,14,41,5.80
2012,08,24,14,42,10.40
2012,08,24,14,43,9.60
2012,08,24,14,44,13.40
2012,08,24,14,45,5.60
2012,08,24,14,46,6.20
2012,08,24,14,47,6.30
2012,08,24,14,48,6.60
2012,08,24,14,49,6.90
2012,08,24,14,50,12.20
2012,08,24,14,51,4.90
2012,08,24,14,52,10.00
2012,08,24,14,53,5.90
2012,08,24,14,54,5.10
2012,08,24,14,55,7.10
2012,08,24,14,56,4.70
2012,08,24,14,57,4.30
2012,08,24,14,58,10.00
2012,08,24,14,59,8.00
2012,08,24,15,00,9.70
2012,08,24,15,01,4.60
2012,08,24,15,02,4.30
2012,08,24,15,03,6.60
2012,08,24,15,04,8.00
2012,08,24,15,05,8.30
2012,08,24,15,06,10.70
2012,08,24,15,07,5.90
2012,08,24,15,08,15.30
2012,08,24,15,09,6.00
2012,08,24,15,10,5.60
2012,08,24,15,11,10.00
2012,08,24,15,12,5.90
2012,08,24,15,13,9.70
2012,08,24,15,14,13.40
2012,08,24,15,15,9.50
2012,08,24,15,16,5.60
2012,08,24,15,17,6.70
2012,08,24,15,18,11.90
2012,08,24,15,19,11.90
2012,08,24,15,20,10.20
2012,08,24,15,21,8.80
2012,08,24,15,22,10.50
2012,08,24,15,23,10.00
2012,08,24,15,24,7.00
2012,08,24,15,25,6.10
2012,08,24,15,26,8.30
2012,08,24,15,27,11.80
2012,08,24,15,28,5.90
2012,08,24,15,29,5.90
2012,08,24,15,30,6.80
2012,08,24,15,31,6.50
2012,08,24,15,32,6.60
2012,08,24,15,33,3.60
2012,08,24,15,34,3.80
2012,08,24,15,35,11.90
2012,08,24,15,36,9.10
2012,08,24,15,37,6.00
2012,08,24,15,38,8.00
2012,08,24,15,39,7.60
2012,08,24,15,40,9.30
2012,08,24,15,41,6.90
2012,08,24,15,42,8.00
2012,08,24,15,43,9.70
2012,08,24,15,44,8.50
2012,08,24,15,45,12.70
2012,08,24,15,46,8.80
2012,08,24,15,47,9.90
2012,08,24,15,48,8.10
2012,08,24,15,49,4.70
2012,08,24,15,50,2.30
2012,08,24,15,51,4.20
2012,08,24,15,52,5.00
2012,08,24,15,53,7.00
2012,08,24,15,54,7.80
2012,08,24,15,55,5.60
2012,08,24,15,56,6.30
2012,08,24,15,57,11.60
2012,08,24,15,58,9.10
2012,08,24,15,59,10.50
2012,08,24,16,00,7.50
2012,08,24,16,01,4.70
2012,08,24,16,02,2.50
2012,08,24,16,03,1.60
2012,08,24,16,04,5.90
2012,08,24,16,05,3.50
2012,08,24,16,06,2.40
2012,08,24,16,07,5.60
2012,08,24,16,08,3.70
2012,08,24,16,09,4.90
2012,08,24,16,10,3.30
2012,08,24,16,11,5.10
2012,08,24,16,12,5.40
2012,08,24,16,13,2.40
2012,08,24,16,14,1.30
2012,08,24,16,15,0.20
2012,08,24,16,16,0.40
2012,08,24,16,17,0.20
2012,08,24,16,18,0.70
2012,08,24,16,19,6.40
2012,08,24,16,20,4.20
2012,08,24,16,21,1.40
2012,08,24,16,22,1.40
2012,08,24,16,23,2.60
2012,08,24,16,24,2.80
2012,08,24,16,25,3.70
2012,08,24,16,26,3.60
2012,08,24,16,27,3.90
2012,08,24,16,28,2.00
2012,08,24,16,29,1.50
2012,08,24,16,30,5.10
2012,08,24,16,31,2.00
2012,08,24,16,32,2.50
2012,08,24,16,33,5.60
2012,08,24,16,34,2.30
2012,08,24,16,35,2.20
2012,08,24,16,36,2.30
2012,08,24,16,37,8.90
2012,08,24,16,38,8.20
2012,08,24,16,39,6.90
2012,08,24,16,40,5.60
2012,08,24,16,41,3.40
2012,08,24,16,42,6.50
2012,08,24,16,43,1.90
2012,08,24,16,44,0.90
2012,08,24,16,45,0.80
2012,08,24,16,46,4.80
2012,08,24,16,47,6.20
2012,08,24,16,48,13.80
2012,08,24,16,49,5.70
2012,08,24,16,50,1.40
2012,08,24,16,51,5.80
2012,08,24,16,52,8.00
2012,08,24,16,53,11.00
2012,08,24,16,54,9.70
2012,08,24,16,55,7.50
2012,08,24,16,56,7.20
2012,08,24,16,57,4.50
2012,08,24,16,58,3.60
2012,08,24,16,59,4.70
2012,08,24,17,00,4.40
2012,08,24,17,01,1.40
2012,08,24,17,02,6.70
2012,08,24,17,03,2.30
2012,08,24,17,04,7.60
2012,08,24,17,05,8.20
2012,08,24,17,06,6.70
2012,08,24,17,07,7.20
2012,08,24,17,08,7.70
2012,08,24,17,09,4.90
2012,08,24,17,10,4.30
2012,08,24,17,11,1.90
2012,08,24,17,12,1.80
2012,08,24,17,13,0.90
2012,08,24,17,14,3.40
2012,08,24,17,15,0.10
2012,08,24,17,16,3.60
2012,08,24,17,17,4.80
2012,08,24,17,18,4.30
2012,08,24,17,19,1.30
2012,08,24,17,20,1.40
2012,08,24,17,21,5.30
2012,08,24,17,22,1.40
2012,08,24,17,23,3.20
2012,08,24,17,24,0.80
2012,08,24,17,25,0.70
2012,08,24,17,26,0.40
2012,08,24,17,27,1.20
2012,08,24,17,28,0.30
2012,08,24,17,29,0.00
2012,08,24,17,30,0.00
2012,08,24,17,31,1.60
2012,08,24,17,32,3.10
2012,08,24,17,33,0.40
2012,08,24,17,34,2.30
2012,08,24,17,35,1.90
2012,08,24,17,36,2.80
2012,08,24,17,37,5.70
2012,08,24,17,38,2.50
2012,08,24,17,39,0.30
2012,08,24,17,40,3.30
2012,08,24,17,41,4.70
2012,08,24,17,42,1.00
2012,08,24,17,43,0.20
2012,08,24,17,44,2.70
2012,08,24,17,45,5.50
2012,08,24,17,46,1.50
2012,08,24,17,47,1.50
2012,08,24,17,48,2.60
2012,08,24,17,49,1.80
2012,08,24,17,50,0.30
2012,08,24,17,51,1.80
2012,08,24,17,52,0.00
2012,08,24,17,53,0.00
2012,08,24,17,54,0.20
2012,08,24,17,55,3.00
2012,08,24,17,56,0.70
2012,08,24,17,57,1.80
2012,08,24,17,58,2.00
2012,08,24,17,59,0.10
2012,08,24,18,00,0.30
2012,08,24,18,01,0.30
2012,08,24,18,02,5.80
2012,08,24,18,03,4.40